"startDT [UTC]","vpos","CH4 [ppm]","stdev(CH4) [ppm]","CO2 [ppm]","stdev(CO2) [ppm]","H2O [ppm]","stdev(H2O)","p_LGR [torr]","T_LGR [C]","mt1_LGR [us]","mt2_LGR [us]","T_ECpre [C]","T_EC1 [C]","T_EC2 [C]","p_inlet [hPa]","p_in [hPa]","p_out [hPa]","T_inlet [C]","RH_inlet [%]","dwpt_inlet [C]","T_vent [C]","RH_vent [%]","dwpt_vent [C]","flow_vent [l min-1]","flow_inlet [l min-1]","dwpt_sample [C]","T_room [C]"
2012-11-21 00:00:00,0.0,1.9143,0.0012,401.17,0.25,38.8,33.2,138.11,28.22,24.65,36.39,0.04,-272.75,-272.75,-40,560,-928,22.9,2.5,-26.7,23.0,2.5,-26.4,5.73,2.36,-27.6,27.9
2012-11-21 00:01:00,0.0,1.9137,0.0011,401.20,0.21,39.0,34.9,138.11,28.22,24.64,36.39,0.04,-272.75,-272.75,-41,560,-928,22.9,2.5,-26.7,23.0,2.5,-26.4,5.73,2.38,-27.6,27.9
2012-11-21 00:02:00,0.0,1.9132,0.0009,401.13,0.26,41.1,28.6,138.11,28.22,24.65,36.39,0.04,-272.75,-272.75,-41,560,-928,22.9,2.5,-26.6,23.0,2.5,-26.3,5.73,2.42,-27.6,27.9
2012-11-21 00:03:00,0.0,1.9134,0.0009,401.19,0.26,34.2,28.4,138.11,28.22,24.65,36.39,0.04,-272.75,-272.74,-41,560,-928,22.9,2.5,-26.5,23.0,2.5,-26.3,5.73,2.44,-27.2,27.9
2012-11-21 00:04:00,0.0,1.9137,0.0011,401.23,0.23,38.2,30.9,138.11,28.23,24.65,36.38,0.04,-272.75,-272.75,-41,560,-928,22.9,2.5,-26.5,23.0,2.6,-26.2,5.73,2.41,-27.2,27.9
2012-11-21 00:05:00,0.0,1.9145,0.0010,401.18,0.24,34.9,27.9,138.11,28.23,24.65,36.39,0.04,-272.75,-272.75,-41,560,-928,22.9,2.5,-26.5,23.0,2.6,-26.2,5.73,2.38,-27.2,27.9
2012-11-21 00:06:00,0.0,1.9147,0.0011,401.10,0.22,36.4,32.8,138.11,28.23,24.64,36.39,0.04,-272.75,-272.75,-41,560,-928,22.9,2.5,-26.5,23.0,2.6,-26.2,5.73,2.35,-27.2,27.9
2012-11-21 00:07:00,0.0,1.9147,0.0011,401.12,0.21,39.1,32.5,138.11,28.23,24.64,36.39,0.04,-272.75,-272.75,-41,560,-928,22.9,2.5,-26.4,23.0,2.6,-26.1,5.73,2.37,-27.2,28.0
2012-11-21 00:08:00,0.0,1.9145,0.0008,401.24,0.25,31.3,27.5,138.11,28.23,24.65,36.38,0.04,-272.75,-272.75,-41,560,-927,22.9,2.5,-26.4,23.0,2.6,-26.1,5.73,2.40,-27.2,27.9
2012-11-21 00:09:00,0.0,1.9151,0.0011,401.19,0.22,37.7,28.8,138.11,28.23,24.64,36.38,0.04,-272.74,-272.75,-41,560,-928,22.9,2.5,-26.4,23.0,2.6,-26.1,5.73,2.43,-27.2,28.0
2012-11-21 00:10:00,0.0,1.9153,0.0010,401.23,0.23,43.6,35.5,138.11,28.24,24.64,36.39,0.04,-272.75,-272.75,-41,560,-928,22.9,2.5,-26.4,23.0,2.6,-26.1,5.73,2.43,-27.2,27.9
2012-11-21 00:11:00,0.0,1.9152,0.0009,401.29,0.24,36.6,30.0,138.11,28.24,24.65,36.38,0.04,-272.75,-272.75,-41,560,-928,22.9,2.5,-26.4,23.0,2.6,-26.1,5.73,2.40,-27.2,28.0
2012-11-21 00:12:00,0.0,1.9153,0.0009,401.15,0.19,41.3,31.3,138.11,28.24,24.65,36.39,0.04,-272.75,-272.75,-41,560,-928,22.9,2.5,-26.4,23.0,2.6,-26.1,5.73,2.36,-27.2,28.0
2012-11-21 00:13:00,0.0,1.9156,0.0010,401.21,0.19,36.6,30.9,138.11,28.25,24.65,36.39,0.04,-272.75,-272.75,-41,560,-927,22.9,2.5,-26.3,23.0,2.6,-26.0,5.73,2.36,-27.2,28.0
2012-11-21 00:14:00,0.0,1.9147,0.0010,401.22,0.23,44.4,34.4,138.11,28.25,24.65,36.39,0.04,-272.75,-272.75,-41,560,-928,22.9,2.6,-26.3,23.0,2.6,-26.0,5.73,2.39,-27.2,28.0
2012-11-21 00:15:00,0.0,1.9137,0.0010,401.23,0.31,43.3,30.7,138.11,28.25,24.65,36.39,0.04,-272.75,-272.75,-41,560,-928,22.9,2.6,-26.2,23.0,2.6,-26.0,5.73,2.42,-27.2,28.0
2012-11-21 00:16:00,0.0,1.9133,0.0010,401.13,0.27,35.0,30.5,138.11,28.25,24.65,36.39,0.04,-272.75,-272.75,-41,560,-928,22.9,2.6,-26.2,23.0,2.6,-25.9,5.73,2.43,-27.2,28.0
2012-11-21 00:17:00,0.0,1.9155,0.0022,401.31,0.26,41.8,32.9,138.11,28.25,24.65,36.38,0.04,-272.75,-272.75,-41,560,-927,22.9,2.6,-26.1,23.0,2.6,-25.9,5.73,2.41,-27.2,28.0
2012-11-21 00:18:00,0.0,1.9175,0.0017,401.16,0.23,37.7,29.2,138.11,28.26,24.64,36.40,0.04,-272.75,-272.75,-41,560,-928,22.9,2.6,-26.2,23.0,2.6,-25.9,5.73,2.38,-27.2,28.0
2012-11-21 00:19:00,0.0,1.9171,0.0011,401.27,0.21,36.2,31.2,138.11,28.26,24.64,36.39,0.04,-272.75,-272.74,-41,560,-928,22.9,2.6,-26.2,23.0,2.6,-25.9,5.73,2.36,-27.2,28.0
2012-11-21 00:20:00,0.0,1.9158,0.0019,401.23,0.28,40.3,28.1,138.11,28.26,24.64,36.39,0.04,-272.75,-272.75,-41,560,-928,22.9,2.6,-26.2,23.0,2.6,-25.9,5.73,2.37,-27.2,28.0
2012-11-21 00:21:00,0.0,1.9139,0.0013,401.20,0.22,42.9,31.6,138.11,28.27,24.65,36.39,0.04,-272.75,-272.75,-40,560,-928,22.9,2.6,-26.1,23.0,2.7,-25.8,5.73,2.42,-27.2,28.0
2012-11-21 00:22:00,0.0,1.9160,0.0011,401.22,0.21,36.5,32.8,138.11,28.27,24.64,36.39,0.04,-272.75,-272.75,-41,560,-927,22.9,2.6,-26.0,23.0,2.7,-25.7,5.73,2.43,-27.2,28.0
2012-11-21 00:23:00,0.0,1.9183,0.0012,401.35,0.24,43.1,36.7,138.11,28.27,24.65,36.38,0.04,-272.74,-272.75,-41,560,-928,23.0,2.6,-26.0,23.0,2.7,-25.6,5.73,2.42,-27.1,28.0
2012-11-21 00:24:00,0.0,1.9206,0.0012,401.34,0.26,43.8,33.1,138.11,28.28,24.65,36.39,0.04,-272.75,-272.75,-41,560,-928,23.0,2.6,-26.0,23.0,2.7,-25.6,5.73,2.38,-27.2,28.0
2012-11-21 00:25:00,0.0,1.9214,0.0012,401.18,0.24,41.4,30.6,138.11,28.28,24.65,36.39,0.04,-272.75,-272.75,-41,560,-928,23.0,2.6,-26.0,23.0,2.7,-25.7,5.73,2.35,-27.1,28.0
2012-11-21 00:26:00,0.0,1.9202,0.0010,401.22,0.23,49.3,36.9,138.11,28.28,24.65,36.40,0.04,-272.74,-272.75,-41,560,-927,23.0,2.6,-26.0,23.0,2.7,-25.7,5.73,2.36,-27.2,28.0
2012-11-21 00:27:00,0.0,1.9183,0.0016,401.26,0.25,43.7,32.0,138.11,28.29,24.64,36.39,0.04,-272.75,-272.75,-41,560,-928,23.0,2.6,-26.0,23.1,2.7,-25.7,5.73,2.40,-27.1,28.0
2012-11-21 00:28:00,0.0,1.9166,0.0022,401.18,0.25,39.9,33.0,138.11,28.29,24.64,36.39,0.04,-272.75,-272.75,-41,560,-928,23.0,2.6,-26.0,23.1,2.7,-25.7,5.73,2.43,-27.1,28.0
2012-11-21 00:29:00,0.0,1.9218,0.0018,401.29,0.21,54.7,35.7,138.11,28.29,24.65,36.39,0.04,-272.75,-272.75,-41,560,-928,23.0,2.6,-26.0,23.1,2.7,-25.7,5.73,2.43,-27.1,28.0
2012-11-21 00:30:00,0.0,1.9220,0.0022,401.20,0.24,47.7,32.8,138.11,28.29,24.65,36.40,0.04,-272.75,-272.74,-41,560,-927,23.0,2.6,-26.0,23.1,2.7,-25.7,5.73,2.38,-27.1,28.0
2012-11-21 00:31:00,0.0,1.9282,0.0020,401.40,0.27,36.8,27.9,138.11,28.29,24.64,36.39,0.04,-272.75,-272.75,-41,560,-927,23.0,2.6,-26.0,23.1,2.7,-25.7,5.73,2.34,-27.1,28.0
2012-11-21 00:32:00,0.0,1.9308,0.0021,401.42,0.24,45.5,35.6,138.11,28.30,24.65,36.39,0.04,-272.75,-272.75,-41,560,-928,23.0,2.6,-26.0,23.1,2.7,-25.7,5.73,2.37,-27.1,28.0
2012-11-21 00:33:00,0.0,1.9343,0.0025,401.48,0.26,46.1,36.0,138.11,28.30,24.65,36.39,0.04,-272.74,-272.75,-41,560,-928,23.0,2.6,-26.0,23.1,2.7,-25.7,5.73,2.40,-27.1,28.0
2012-11-21 00:34:00,0.0,1.9269,0.0025,401.38,0.25,44.1,31.6,138.11,28.30,24.65,36.39,0.04,-272.75,-272.75,-41,560,-928,23.0,2.6,-26.1,23.1,2.7,-25.8,5.73,2.43,-27.1,28.0
2012-11-21 00:35:00,0.0,1.9193,0.0016,401.30,0.27,45.8,35.9,138.11,28.30,24.64,36.39,0.04,-272.75,-272.75,-41,560,-927,23.0,2.6,-26.2,23.1,2.6,-25.9,5.73,2.42,-27.1,28.0
2012-11-21 00:36:00,0.0,1.9173,0.0010,401.27,0.23,52.8,32.3,138.11,28.30,24.64,36.39,0.04,-272.75,-272.75,-41,560,-928,23.0,2.6,-26.1,23.1,2.6,-25.8,5.73,2.38,-27.1,28.0
2012-11-21 00:37:00,0.0,1.9200,0.0018,401.34,0.22,46.0,30.3,138.11,28.30,24.65,36.39,0.04,-272.75,-272.75,-41,560,-928,23.0,2.6,-26.1,23.1,2.6,-25.8,5.73,2.36,-27.1,28.0
2012-11-21 00:38:00,0.0,1.9214,0.0015,401.35,0.24,42.6,32.7,138.11,28.31,24.64,36.39,0.04,-272.75,-272.75,-41,560,-928,23.0,2.6,-26.1,23.1,2.6,-25.8,5.73,2.36,-27.1,28.0
2012-11-21 00:39:00,0.0,1.9214,0.0010,401.38,0.24,43.0,31.6,138.11,28.31,24.65,36.39,0.04,-272.75,-272.75,-41,560,-927,23.0,2.6,-26.1,23.1,2.6,-25.8,5.73,2.40,-27.1,28.0
2012-11-21 00:40:00,0.0,1.9240,0.0012,401.32,0.26,43.5,34.2,138.11,28.31,24.64,36.39,0.04,-272.74,-272.75,-41,560,-927,23.0,2.6,-26.1,23.1,2.6,-25.9,5.73,2.44,-27.1,28.0
2012-11-21 00:41:00,0.0,1.9228,0.0011,401.39,0.22,41.3,32.4,138.11,28.31,24.65,36.38,0.04,-272.75,-272.75,-41,560,-928,23.0,2.6,-26.1,23.1,2.6,-25.9,5.73,2.42,-27.1,28.1
2012-11-21 00:42:00,0.0,1.9232,0.0014,401.43,0.27,41.3,31.5,138.11,28.32,24.65,36.39,0.04,-272.75,-272.75,-41,560,-928,23.0,2.6,-26.1,23.1,2.6,-25.8,5.73,2.38,-27.1,28.0
2012-11-21 00:43:00,0.0,1.9236,0.0011,401.42,0.24,43.5,32.9,138.11,28.32,24.65,36.39,0.04,-272.75,-272.75,-41,560,-928,23.0,2.6,-26.1,23.1,2.6,-25.8,5.73,2.35,-27.1,28.0
2012-11-21 00:44:00,0.0,1.9245,0.0009,401.37,0.22,47.4,31.0,138.11,28.32,24.64,36.39,0.04,-272.75,-272.75,-41,560,-927,23.0,2.6,-26.2,23.1,2.6,-25.8,5.73,2.36,-27.1,28.0
2012-11-21 00:45:00,0.0,1.9242,0.0010,401.46,0.24,41.5,26.5,138.11,28.32,24.65,36.39,0.04,-272.75,-272.75,-41,560,-927,23.0,2.6,-26.1,23.1,2.6,-25.8,5.73,2.40,-27.1,28.1
2012-11-21 00:46:00,0.0,1.9236,0.0011,401.40,0.29,47.8,30.0,138.11,28.33,24.65,36.39,0.04,-272.75,-272.75,-41,560,-928,23.0,2.6,-26.1,23.1,2.6,-25.8,5.73,2.44,-27.1,28.0
2012-11-21 00:47:00,0.0,1.9248,0.0010,401.41,0.24,37.5,30.6,138.11,28.33,24.64,36.39,0.04,-272.74,-272.75,-41,560,-928,23.0,2.6,-26.1,23.1,2.6,-25.9,5.73,2.42,-27.1,28.1
2012-11-21 00:48:00,0.0,1.9260,0.0012,401.38,0.22,39.6,31.4,138.11,28.33,24.65,36.39,0.04,-272.75,-272.75,-41,560,-928,23.0,2.6,-26.1,23.1,2.6,-25.9,5.73,2.38,-27.1,28.1
2012-11-21 00:49:00,0.0,1.9262,0.0011,401.52,0.24,49.9,34.1,138.11,28.34,24.65,36.38,0.04,-272.75,-272.75,-41,560,-927,23.0,2.6,-26.1,23.1,2.6,-25.9,5.73,2.36,-27.1,28.0
2012-11-21 00:50:00,0.0,1.9241,0.0013,401.39,0.27,45.9,31.6,138.11,28.34,24.65,36.39,0.04,-272.74,-272.75,-41,560,-927,23.0,2.6,-26.1,23.1,2.6,-25.9,5.73,2.37,-27.0,28.1
2012-11-21 00:51:00,0.0,1.9221,0.0011,401.34,0.23,45.0,23.8,138.11,28.34,24.65,36.39,0.04,-272.75,-272.75,-41,560,-928,23.0,2.6,-26.1,23.1,2.6,-25.9,5.73,2.41,-27.1,28.1
2012-11-21 00:52:00,0.0,1.9231,0.0012,401.48,0.26,44.9,34.3,138.10,28.34,24.65,36.38,0.04,-272.75,-272.75,-41,560,-928,23.0,2.6,-26.1,23.1,2.6,-25.9,5.73,2.44,-27.1,28.1
2012-11-21 00:53:00,0.0,1.9225,0.0014,401.30,0.23,49.5,30.7,138.11,28.34,24.65,36.40,0.04,-272.75,-272.75,-41,560,-928,23.0,2.6,-26.2,23.1,2.6,-25.9,5.73,2.41,-27.1,28.1
2012-11-21 00:54:00,0.0,1.9218,0.0008,401.40,0.25,47.0,33.7,138.11,28.35,24.65,36.39,0.04,-272.75,-272.75,-41,560,-927,23.0,2.6,-26.2,23.1,2.6,-25.9,5.73,2.37,-27.0,28.1
2012-11-21 00:55:00,0.0,1.9201,0.0013,401.39,0.29,49.8,29.1,138.11,28.35,24.65,36.38,0.04,-272.75,-272.75,-41,560,-927,23.1,2.6,-26.2,23.1,2.6,-25.9,5.73,2.35,-27.0,28.1
2012-11-21 00:56:00,0.0,1.9205,0.0010,401.40,0.24,46.4,31.2,138.10,28.35,24.65,36.39,0.04,-272.75,-272.75,-41,561,-927,23.1,2.6,-26.2,23.1,2.6,-25.9,5.73,2.38,-27.0,28.1
2012-11-21 00:57:00,0.0,1.9202,0.0010,401.41,0.27,48.7,31.3,138.11,28.36,24.64,36.38,0.04,-272.75,-272.75,-41,560,-928,23.0,2.6,-26.2,23.1,2.6,-25.9,5.73,2.42,-27.0,28.1
2012-11-21 00:58:00,0.0,1.9195,0.0009,401.28,0.26,60.7,31.2,138.10,28.36,24.65,36.39,0.04,-272.75,-272.75,-41,560,-928,23.1,2.6,-26.2,23.1,2.6,-25.9,5.73,2.43,-27.0,28.1
2012-11-21 00:59:00,0.0,1.9196,0.0011,401.30,0.26,52.6,34.3,138.10,28.36,24.64,36.39,0.04,-272.75,-272.75,-41,560,-928,23.1,2.6,-26.2,23.1,2.6,-25.9,5.73,2.39,-27.0,28.1
2012-11-21 01:00:00,0.0,1.9206,0.0009,401.33,0.27,48.9,33.2,138.10,28.37,24.64,36.39,0.04,-272.75,-272.74,-41,560,-927,23.1,2.6,-26.2,23.1,2.6,-25.9,5.73,2.35,-27.0,28.1
2012-11-21 01:01:00,0.0,1.9203,0.0010,401.25,0.31,58.8,32.8,138.11,28.37,24.64,36.39,0.04,-272.75,-272.75,-41,560,-927,23.1,2.5,-26.2,23.1,2.6,-25.9,5.73,2.35,-27.0,28.1
2012-11-21 01:02:00,0.0,1.9198,0.0008,401.26,0.23,62.0,35.1,138.11,28.37,24.64,36.40,0.04,-272.75,-272.75,-41,560,-928,23.1,2.6,-26.2,23.1,2.6,-25.9,5.73,2.40,-27.0,28.1
2012-11-21 01:03:00,0.0,1.9202,0.0010,401.30,0.25,44.8,33.5,138.10,28.38,24.65,36.39,0.04,-272.75,-272.75,-41,560,-928,23.1,2.6,-26.2,23.2,2.6,-25.9,5.73,2.44,-27.0,28.1
2012-11-21 01:04:00,0.0,1.9202,0.0009,401.26,0.27,52.9,33.1,138.10,28.38,24.65,36.40,0.04,-272.74,-272.75,-41,561,-928,23.1,2.6,-26.2,23.2,2.6,-25.9,5.73,2.41,-27.0,28.1
2012-11-21 01:05:00,0.0,1.9196,0.0010,401.30,0.23,54.1,27.7,138.11,28.38,24.65,36.39,0.04,-272.75,-272.75,-41,560,-928,23.1,2.6,-26.2,23.2,2.6,-25.9,5.73,2.37,-27.0,28.1
2012-11-21 01:06:00,0.0,1.9199,0.0009,401.41,0.24,55.8,35.5,138.10,28.39,24.65,36.39,0.04,-272.75,-272.75,-41,561,-927,23.1,2.6,-26.2,23.2,2.6,-25.9,5.73,2.35,-27.0,28.1
2012-11-21 01:07:00,0.0,1.9198,0.0009,401.39,0.25,55.4,33.7,138.10,28.39,24.64,36.39,0.04,-272.75,-272.75,-41,561,-928,23.1,2.6,-26.2,23.2,2.6,-25.9,5.73,2.37,-27.0,28.1
2012-11-21 01:08:00,0.0,1.9188,0.0010,401.32,0.23,49.3,27.6,138.10,28.39,24.65,36.39,0.04,-272.75,-272.75,-41,561,-928,23.1,2.5,-26.2,23.2,2.6,-25.9,5.73,2.42,-26.9,28.1
2012-11-21 01:09:00,0.0,1.9167,0.0014,401.44,0.26,43.0,35.5,138.10,28.39,24.64,36.38,0.04,-272.75,-272.75,-41,561,-928,23.1,2.6,-26.2,23.2,2.6,-25.9,5.73,2.43,-27.0,28.1
2012-11-21 01:10:00,0.0,1.9150,0.0009,401.35,0.19,67.1,39.0,138.10,28.39,24.64,36.39,0.04,-272.75,-272.75,-41,561,-928,23.1,2.6,-26.2,23.2,2.6,-25.9,5.73,2.40,-27.0,28.1
2012-11-21 01:11:00,0.0,1.9156,0.0010,401.31,0.27,55.4,33.6,138.10,28.40,24.64,36.39,0.04,-272.75,-272.75,-41,561,-927,23.1,2.6,-26.2,23.2,2.6,-25.8,5.73,2.35,-27.0,28.1
2012-11-21 01:12:00,0.0,1.9152,0.0012,401.28,0.22,54.4,31.5,138.10,28.40,24.65,36.39,0.04,-272.75,-272.75,-41,561,-928,23.1,2.6,-26.2,23.2,2.6,-25.8,5.73,2.35,-27.0,28.1
2012-11-21 01:13:00,0.0,1.9155,0.0010,401.30,0.24,58.4,34.2,138.10,28.40,24.65,36.39,0.04,-272.75,-272.75,-41,561,-928,23.1,2.6,-26.1,23.2,2.6,-25.8,5.73,2.39,-27.0,28.1
2012-11-21 01:14:00,0.0,1.9155,0.0011,401.32,0.22,51.2,31.9,138.10,28.41,24.65,36.39,0.04,-272.74,-272.75,-41,561,-928,23.1,2.6,-26.1,23.2,2.6,-25.8,5.73,2.43,-26.9,28.1
2012-11-21 01:15:00,0.0,1.9152,0.0011,401.32,0.19,47.3,31.3,138.10,28.41,24.65,36.39,0.04,-272.75,-272.75,-41,561,-928,23.1,2.6,-26.1,23.2,2.6,-25.8,5.73,2.43,-26.9,28.1
2012-11-21 01:16:00,0.0,1.9157,0.0014,401.42,0.28,56.5,33.6,138.10,28.42,24.65,36.39,0.04,-272.75,-272.75,-41,561,-928,23.1,2.6,-26.1,23.2,2.6,-25.7,5.73,2.37,-26.9,28.2
2012-11-21 01:17:00,0.0,1.9180,0.0012,401.45,0.23,55.2,36.0,138.10,28.42,24.64,36.38,0.04,-272.74,-272.75,-41,561,-927,23.1,2.6,-26.0,23.2,2.6,-25.8,5.73,2.34,-26.9,28.1
2012-11-21 01:18:00,0.0,1.9198,0.0012,401.38,0.30,53.6,38.9,138.10,28.42,24.65,36.39,0.04,-272.75,-272.75,-41,561,-927,23.1,2.6,-26.1,23.2,2.6,-25.8,5.73,2.37,-26.9,28.1
2012-11-21 01:19:00,0.0,1.9188,0.0012,401.46,0.25,57.1,32.4,138.10,28.43,24.64,36.39,0.04,-272.75,-272.75,-41,561,-928,23.1,2.6,-26.1,23.2,2.7,-25.7,5.73,2.41,-26.9,28.2
2012-11-21 01:20:00,0.0,1.9175,0.0010,401.39,0.24,51.4,32.3,138.10,28.43,24.65,36.39,0.04,-272.75,-272.75,-41,561,-928,23.1,2.6,-26.1,23.2,2.7,-25.6,5.73,2.43,-26.9,28.2
2012-11-21 01:21:00,0.0,1.9178,0.0011,401.38,0.21,56.1,31.1,138.10,28.43,24.65,36.40,0.04,-272.75,-272.75,-41,561,-928,23.1,2.6,-26.0,23.2,2.6,-25.7,5.73,2.39,-26.9,28.2
2012-11-21 01:22:00,0.0,1.9184,0.0011,401.47,0.26,57.5,34.0,138.10,28.43,24.65,36.39,0.04,-272.74,-272.75,-41,561,-928,23.1,2.6,-26.0,23.2,2.6,-25.7,5.73,2.35,-26.9,28.2
2012-11-21 01:23:00,0.0,1.9201,0.0013,401.42,0.27,55.4,31.1,138.10,28.44,24.65,36.39,0.04,-272.75,-272.75,-41,561,-927,23.2,2.6,-26.0,23.2,2.6,-25.7,5.73,2.35,-26.9,28.2
2012-11-21 01:24:00,0.0,1.9200,0.0012,401.44,0.23,54.5,33.7,138.10,28.44,24.65,36.39,0.04,-272.75,-272.74,-41,561,-927,23.1,2.6,-26.0,23.2,2.6,-25.7,5.73,2.40,-26.9,28.2
2012-11-21 01:25:00,0.0,1.9207,0.0009,401.49,0.25,59.8,28.5,138.10,28.45,24.65,36.39,0.04,-272.75,-272.75,-41,561,-927,23.2,2.6,-26.0,23.2,2.6,-25.8,5.73,2.43,-26.9,28.2
2012-11-21 01:26:00,0.0,1.9220,0.0008,401.56,0.29,65.4,38.9,138.10,28.45,24.65,36.39,0.04,-272.75,-272.75,-41,561,-928,23.2,2.6,-26.0,23.2,2.6,-25.7,5.73,2.41,-26.9,28.2
2012-11-21 01:27:00,0.0,1.9226,0.0012,401.57,0.24,56.7,35.2,138.10,28.45,24.64,36.38,0.04,-272.75,-272.74,-41,561,-928,23.2,2.6,-25.9,23.2,2.6,-25.7,5.73,2.37,-26.9,28.2
2012-11-21 01:28:00,0.0,1.9229,0.0010,401.52,0.22,51.3,34.7,138.10,28.46,24.64,36.39,0.04,-272.75,-272.75,-41,561,-928,23.2,2.6,-25.9,23.2,2.6,-25.7,5.73,2.34,-26.9,28.2
2012-11-21 01:29:00,0.0,1.9232,0.0009,401.53,0.30,52.9,30.4,138.10,28.46,24.65,36.39,0.04,-272.75,-272.75,-41,561,-927,23.2,2.6,-25.9,23.2,2.6,-25.7,5.73,2.38,-26.8,28.2
2012-11-21 01:30:00,0.0,1.9238,0.0010,401.54,0.25,54.1,30.5,138.10,28.46,24.65,36.39,0.04,-272.74,-272.75,-41,561,-927,23.2,2.6,-26.0,23.3,2.6,-25.7,5.73,2.43,-26.9,28.2
2012-11-21 01:31:00,0.0,1.9258,0.0011,401.53,0.25,53.8,29.0,138.10,28.46,24.65,36.39,0.04,-272.75,-272.75,-41,561,-928,23.2,2.6,-26.0,23.3,2.6,-25.7,5.73,2.43,-26.8,28.2
2012-11-21 01:32:00,0.0,1.9250,0.0011,401.66,0.26,55.9,29.5,138.10,28.47,24.65,36.38,0.04,-272.75,-272.75,-41,561,-928,23.2,2.6,-25.9,23.3,2.6,-25.7,5.73,2.38,-26.8,28.2
2012-11-21 01:33:00,0.0,1.9244,0.0011,401.52,0.23,65.8,32.4,138.10,28.47,24.64,36.39,0.04,-272.75,-272.75,-41,561,-928,23.2,2.6,-25.9,23.3,2.6,-25.7,5.73,2.34,-26.8,28.2
2012-11-21 01:34:00,0.0,1.9221,0.0011,401.49,0.29,57.4,30.1,138.10,28.47,24.65,36.39,0.04,-272.75,-272.75,-41,561,-928,23.2,2.6,-25.9,23.3,2.6,-25.7,5.73,2.37,-26.8,28.2
2012-11-21 01:35:00,0.0,1.9212,0.0008,401.47,0.30,63.9,34.3,138.10,28.47,24.64,36.39,0.04,-272.75,-272.75,-41,561,-928,23.2,2.6,-25.9,23.3,2.6,-25.7,5.73,2.42,-26.8,28.2
2012-11-21 01:36:00,0.0,1.9194,0.0011,401.37,0.27,61.2,32.9,138.10,28.48,24.65,36.39,0.04,-272.75,-272.75,-41,561,-927,23.2,2.6,-25.9,23.3,2.6,-25.7,5.73,2.43,-26.8,28.2
2012-11-21 01:37:00,0.0,1.9178,0.0010,401.50,0.24,60.3,34.4,138.10,28.48,24.65,36.39,0.04,-272.75,-272.75,-41,561,-928,23.2,2.6,-25.9,23.3,2.6,-25.7,5.73,2.39,-26.8,28.2
2012-11-21 01:38:00,0.0,1.9185,0.0010,401.48,0.25,68.5,33.3,138.10,28.48,24.65,36.39,0.04,-272.75,-272.75,-41,561,-928,23.2,2.6,-25.9,23.3,2.6,-25.7,5.73,2.35,-26.8,28.2
2012-11-21 01:39:00,0.0,1.9187,0.0011,401.34,0.26,58.6,37.9,138.10,28.49,24.64,36.39,0.04,-272.75,-272.75,-41,561,-928,23.2,2.6,-25.9,23.3,2.6,-25.7,5.73,2.36,-26.8,28.2
2012-11-21 01:40:00,0.0,1.9178,0.0007,401.43,0.26,58.0,33.0,138.10,28.49,24.64,36.39,0.04,-272.75,-272.75,-41,561,-928,23.2,2.6,-25.9,23.3,2.6,-25.7,5.73,2.41,-26.8,28.3
2012-11-21 01:41:00,0.0,1.9193,0.0011,401.39,0.25,52.8,31.3,138.10,28.50,24.65,36.39,0.04,-272.75,-272.75,-41,561,-928,23.2,2.6,-26.0,23.3,2.6,-25.7,5.73,2.44,-26.8,28.3
2012-11-21 01:42:00,0.0,1.9201,0.0011,401.45,0.28,61.5,35.9,138.10,28.50,24.65,36.39,0.04,-272.74,-272.75,-41,561,-928,23.3,2.6,-26.0,23.3,2.6,-25.7,5.73,2.40,-26.8,28.2
2012-11-21 01:43:00,0.0,1.9199,0.0013,401.47,0.26,59.5,32.5,138.10,28.50,24.65,36.39,0.04,-272.75,-272.75,-41,561,-927,23.2,2.6,-26.0,23.3,2.6,-25.7,5.73,2.35,-26.8,28.2
2012-11-21 01:44:00,0.0,1.9212,0.0010,401.46,0.29,59.6,34.8,138.10,28.50,24.64,36.39,0.04,-272.74,-272.75,-41,561,-928,23.3,2.6,-26.0,23.3,2.7,-25.6,5.73,2.36,-26.8,28.3
2012-11-21 01:45:00,0.0,1.9203,0.0010,401.35,0.25,62.8,31.1,138.10,28.51,24.65,36.40,0.04,-272.75,-272.75,-41,561,-928,23.2,2.6,-26.0,23.3,2.7,-25.6,5.73,2.41,-26.8,28.3
2012-11-21 01:46:00,0.0,1.9208,0.0010,401.47,0.26,54.4,32.1,138.10,28.51,24.65,36.39,0.04,-272.75,-272.75,-41,561,-928,23.2,2.6,-25.9,23.3,2.7,-25.6,5.73,2.44,-26.8,28.3
2012-11-21 01:47:00,0.0,1.9198,0.0009,401.35,0.28,68.1,31.5,138.10,28.51,24.65,36.40,0.04,-272.75,-272.75,-41,561,-928,23.3,2.6,-25.8,23.3,2.7,-25.6,5.73,2.40,-26.8,28.3
2012-11-21 01:48:00,0.0,1.9203,0.0008,401.42,0.24,63.7,29.8,138.10,28.52,24.65,36.39,0.04,-272.74,-272.75,-41,561,-928,23.2,2.6,-25.9,23.3,2.7,-25.6,5.73,2.35,-26.8,28.3
2012-11-21 01:49:00,0.0,1.9200,0.0010,401.42,0.26,55.9,31.7,138.10,28.52,24.65,36.39,0.04,-272.75,-272.75,-41,561,-928,23.2,2.6,-25.8,23.3,2.7,-25.6,5.73,2.35,-26.8,28.2
2012-11-21 01:50:00,0.0,1.9182,0.0013,401.35,0.27,65.0,33.9,138.10,28.52,24.65,36.39,0.04,-272.75,-272.75,-41,561,-927,23.3,2.6,-25.9,23.3,2.7,-25.6,5.73,2.40,-26.8,28.3
2012-11-21 01:51:00,0.0,1.9192,0.0011,401.49,0.26,61.9,33.2,138.10,28.53,24.64,36.38,0.04,-272.75,-272.75,-41,561,-927,23.2,2.6,-25.8,23.3,2.7,-25.5,5.73,2.43,-26.8,28.3
2012-11-21 01:52:00,0.0,1.9179,0.0013,401.36,0.23,59.2,29.8,138.10,28.53,24.65,36.39,0.04,-272.75,-272.75,-41,561,-928,23.2,2.6,-25.7,23.3,2.7,-25.4,5.73,2.41,-26.8,28.3
2012-11-21 01:53:00,0.0,1.9186,0.0008,401.36,0.23,70.6,32.9,138.10,28.53,24.65,36.39,0.04,-272.75,-272.75,-41,561,-928,23.3,2.6,-25.7,23.3,2.7,-25.4,5.73,2.35,-26.8,28.3
2012-11-21 01:54:00,0.0,1.9180,0.0012,401.27,0.21,62.3,31.9,138.10,28.54,24.65,36.39,0.04,-272.75,-272.75,-41,561,-928,23.3,2.6,-25.7,23.3,2.7,-25.4,5.73,2.35,-26.8,28.3
2012-11-21 01:55:00,0.0,1.9182,0.0015,401.24,0.26,70.7,27.9,138.10,28.54,24.65,36.40,0.04,-272.75,-272.75,-41,561,-928,23.3,2.6,-25.8,23.3,2.7,-25.5,5.73,2.41,-26.8,28.3
2012-11-21 01:56:00,0.0,1.9208,0.0012,401.29,0.27,62.4,33.8,138.10,28.54,24.64,36.40,0.04,-272.75,-272.75,-41,561,-928,23.3,2.6,-25.9,23.3,2.7,-25.6,5.73,2.44,-26.7,28.3
2012-11-21 01:57:00,0.0,1.9197,0.0013,401.23,0.22,64.9,33.7,138.10,28.55,24.64,36.40,0.04,-272.75,-272.75,-41,561,-927,23.3,2.6,-25.9,23.3,2.7,-25.5,5.73,2.40,-26.8,28.3
2012-11-21 01:58:00,0.0,1.9166,0.0009,401.24,0.30,62.9,30.3,138.10,28.55,24.65,36.40,0.04,-272.75,-272.75,-41,561,-927,23.3,2.6,-25.8,23.3,2.7,-25.6,5.73,2.35,-26.7,28.3
2012-11-21 01:59:00,0.0,1.9176,0.0013,401.24,0.25,53.9,29.3,138.10,28.55,24.65,36.39,0.04,-272.75,-272.75,-41,561,-928,23.3,2.6,-25.8,23.3,2.7,-25.5,5.73,2.35,-26.7,28.3
2012-11-21 02:00:00,1.0,1.8937,0.0172,386.46,10.50,61.5,33.2,138.10,28.56,24.64,36.39,0.04,-272.75,-272.75,-41,617,-928,23.2,2.6,-25.7,23.3,2.7,-25.4,5.73,2.39,-26.7,28.3
2012-11-21 02:01:00,1.0,1.8735,0.0008,374.59,0.21,58.9,32.3,138.10,28.56,24.65,36.40,0.04,-272.75,-272.75,-41,614,-928,23.3,2.6,-25.7,23.3,2.7,-25.4,5.73,2.43,-26.8,28.3
2012-11-21 02:02:00,1.0,1.8740,0.0008,374.53,0.26,50.7,33.1,138.10,28.56,24.65,36.40,0.04,-272.75,-272.75,-41,614,-928,23.2,2.6,-25.8,23.3,2.7,-25.5,5.73,2.40,-26.8,28.3
2012-11-21 02:03:00,1.0,1.8736,0.0009,374.57,0.23,48.8,26.0,138.10,28.57,24.65,36.40,0.04,-272.75,-272.75,-41,614,-928,23.3,2.6,-25.7,23.3,2.7,-25.4,5.73,2.35,-26.8,28.3
2012-11-21 02:04:00,1.0,1.8741,0.0009,374.42,0.22,48.6,32.0,138.10,28.57,24.65,36.41,0.04,-272.74,-272.75,-41,614,-927,23.3,2.6,-25.7,23.3,2.7,-25.4,5.73,2.35,-26.8,28.3
2012-11-21 02:05:00,0.0,1.8963,0.0156,389.45,10.38,63.9,35.9,138.10,28.57,24.65,36.39,0.04,-272.75,-272.75,-41,558,-927,23.3,2.6,-25.7,23.4,2.7,-25.3,5.73,2.40,-26.8,28.4
2012-11-21 02:06:00,0.0,1.9146,0.0010,401.14,0.18,65.7,34.5,138.10,28.58,24.65,36.40,0.04,-272.75,-272.75,-41,559,-928,23.3,2.6,-25.7,23.4,2.7,-25.4,5.73,2.44,-26.7,28.4
2012-11-21 02:07:00,0.0,1.9151,0.0010,401.18,0.25,66.2,32.4,138.10,28.58,24.65,36.39,0.04,-272.75,-272.74,-41,559,-928,23.3,2.6,-25.7,23.4,2.7,-25.4,5.73,2.40,-26.7,28.3
2012-11-21 02:08:00,0.0,1.9145,0.0009,401.22,0.23,63.1,34.0,138.10,28.58,24.65,36.39,0.04,-272.75,-272.75,-41,559,-928,23.3,2.6,-25.7,23.4,2.7,-25.4,5.73,2.35,-26.7,28.4
2012-11-21 02:09:00,0.0,1.9148,0.0008,401.11,0.27,73.5,27.7,138.10,28.58,24.65,36.40,0.04,-272.75,-272.75,-41,559,-928,23.3,2.6,-25.7,23.4,2.7,-25.4,5.73,2.36,-26.7,28.4
2012-11-21 02:10:00,0.0,1.9146,0.0009,401.18,0.34,71.1,29.5,138.10,28.59,24.65,36.39,0.04,-272.75,-272.75,-41,559,-928,23.3,2.6,-25.7,23.4,2.7,-25.4,5.73,2.42,-26.7,28.4
2012-11-21 02:11:00,0.0,1.9143,0.0009,401.17,0.24,72.4,31.0,138.10,28.59,24.65,36.39,0.04,-272.75,-272.75,-41,559,-928,23.3,2.6,-25.7,23.4,2.7,-25.4,5.73,2.43,-26.7,28.4
2012-11-21 02:12:00,0.0,1.9141,0.0009,401.14,0.27,69.4,31.5,138.10,28.59,24.65,36.40,0.04,-272.75,-272.75,-41,559,-928,23.3,2.6,-25.7,23.4,2.7,-25.4,5.73,2.39,-26.7,28.3
2012-11-21 02:13:00,0.0,1.9145,0.0010,401.15,0.23,65.0,34.2,138.10,28.59,24.65,36.40,0.04,-272.75,-272.75,-41,559,-928,23.3,2.6,-25.7,23.4,2.7,-25.4,5.73,2.34,-26.7,28.4
2012-11-21 02:14:00,0.0,1.9155,0.0010,401.22,0.25,68.4,33.2,138.10,28.60,24.64,36.39,0.04,-272.75,-272.75,-41,559,-928,23.3,2.6,-25.7,23.4,2.7,-25.3,5.73,2.36,-26.7,28.4
2012-11-21 02:15:00,0.0,1.9150,0.0009,401.10,0.27,59.6,32.5,138.10,28.60,24.65,36.40,0.04,-272.75,-272.75,-41,559,-927,23.3,2.6,-25.7,23.4,2.7,-25.3,5.73,2.42,-26.7,28.4
2012-11-21 02:16:00,0.0,1.9147,0.0012,401.20,0.27,62.3,29.1,138.10,28.60,24.65,36.39,0.04,-272.75,-272.75,-41,559,-928,23.3,2.6,-25.7,23.4,2.7,-25.3,5.73,2.44,-26.8,28.4
2012-11-21 02:17:00,0.0,1.9141,0.0010,401.14,0.24,68.5,39.5,138.10,28.61,24.65,36.39,0.04,-272.75,-272.75,-41,560,-928,23.3,2.6,-25.7,23.4,2.7,-25.4,5.73,2.39,-26.7,28.4